Location: Castelbiague
(43.0361°N, 0.9246°E)
Time: 23:13:38
(UTC+00:00)

IDEFIX/ARIANE 42P - Visible Passes

Search period start: 10 August 2022 00:00
Search period end: 20 August 2022 00:00
Orbit: 784 x 803 km, 98.5° (Epoch: 10 August)

Date Brightness Start Highest point End Pass type
(mag) Time Alt. Az. Time Alt. Az. Time Alt. Az.
10 Aug 2.5 02:07:44 10° NNE 02:12:57 79° ESE 02:13:59 58° S visible
10 Aug 4.4 03:49:01 10° NNW 03:51:52 15° WNW 03:54:42 10° W visible
11 Aug 3.3 01:39:26 10° NNE 01:44:23 43° E 01:45:04 41° ESE visible
11 Aug 3.8 03:19:31 10° N 03:23:42 25° WNW 03:25:52 19° W visible
12 Aug 4.2 01:11:31 10° NE 01:15:42 24° E 01:16:08 24° ESE visible
12 Aug 3.1 02:50:31 10° N 02:55:26 44° WNW 02:56:56 35° WSW visible
13 Aug 4.9 00:44:28 10° ENE 00:46:53 13° E 00:47:13 13° E visible
13 Aug 2.5 02:21:49 10° N 02:27:02 78° WNW 02:28:01 59° SW visible
13 Aug 4.6 04:04:11 10° NW 04:05:43 11° WNW 04:07:16 10° WNW visible
14 Aug 2.8 01:53:22 10° NNE 01:58:32 59° E 01:59:06 55° SE visible
14 Aug 4.2 03:34:00 10° NNW 03:37:38 20° WNW 03:39:52 15° W visible
15 Aug 3.8 01:25:14 10° NNE 01:29:54 32° E 01:30:10 32° ESE visible
15 Aug 3.5 03:04:48 10° N 03:09:25 33° WNW 03:10:58 28° W visible
16 Aug 4.6 00:57:37 10° NE 01:01:09 18° E 01:01:15 18° E visible
16 Aug 2.7 02:35:58 10° N 02:41:05 58° WNW 02:42:02 50° WSW visible
17 Aug 2.5 02:07:23 10° NNE 02:12:38 79° ESE 02:13:07 71° SSE visible
17 Aug 4.4 03:48:40 10° NNW 03:51:32 15° WNW 03:53:54 11° W visible
18 Aug 3.3 01:39:05 10° NNE 01:44:03 43° E 01:44:11 43° ESE visible
18 Aug 3.8 03:19:10 10° N 03:23:22 25° WNW 03:24:58 22° W visible
19 Aug 4.2 01:11:09 10° NE 01:15:15 24° E 01:15:15 24° E visible
19 Aug 3.0 02:50:10 10° N 02:55:06 44° WNW 02:56:03 39° W visible
